Lid_Strength_Index
-0 0 0 1 7 7 10 10 7 8 8 5 5 6 7 6 8 10 1 -0 -0 -0 -1 -1 -1 -1 -2 -1 -1 -2 -1 -2 -2 -2 -2 -2 -2 -2 -2 -2 -2 -2 -2 -2 -2 -2 -2 -2 -2
0 1 0 3 8 10 10 8 9 7 6 5 5 5 6 7 4 4 2 0 -1 -1 -1 -1 -1 -1 -1 -1 -2 -2 -2 -2 -2 -2 -2 -2 -2 -2 -2 -2 -3 -2 -2 -2 -2 -2 -2 -2 -2
1 1 4 6 8 11 10 8 7 6 5 5 6 5 5 6 4 3 1 -0 -1 -1 -1 -1 -1 -1 -1 -1 -1 -2 -2 -1 -2 -2 -2 -2 -2 -2 -2 -2 -2 -2 -2 -2 -2 -2 -2 -2 -2
1 1 3 8 10 8 8 7 6 7 6 5 5 7 4 2 3 1 -0 -1 -0 -1 -1 -1 -1 -2 -2 -2 -1 -2 -1 -1 -2 -3 -2 -2 -2 -2 -2 -2 -2 -2 -2 -2 -2 -1 -2 -2 -2
1 3 7 9 9 8 7 6 6 6 6 6 5 7 6 3 1 0 0 -0 -0 -0 -1 -1 -1 -1 -2 -2 -2 -2 -2 -1 -1 -3 -2 -2 -2 -2 -2 -2 -2 -2 -2 -2 -2 -1 -1 -1 -1
5 4 9 11 10 8 6 5 5 6 5 5 6 6 5 2 2 1 -0 -0 -1 -0 -1 -1 0 -0 -1 -1 -2 -2 -2 -1 -1 -2 -2 -2 -2 -2 -2 -2 -2 -2 -2 -2 -1 -1 -1 -1 -1
6 7 8 10 9 9 7 5 6 6 6 6 4 6 5 3 1 0 -0 -0 -1 -1 -1 -1 -1 -1 0 -1 -1 -2 -2 -2 -2 -2 -2 -2 -2 -2 -2 -2 -2 -2 -2 -2 -1 -1 -1 -1 -1
4 6 9 9 10 9 6 5 5 5 6 3 3 6 6 3 1 0 0 0 -0 -1 -1 -1 -1 -1 -1 -1 0 -0 -1 -1 -2 -1 -1 -1 -1 -1 -1 -1 -2 -2 -2 -1 -1 -1 -1 -1 -1
3 8 10 8 10 8 6 6 5 4 5 4 4 4 3 2 1 1 2 1 1 0 -0 -0 -1 -1 -1 -1 -0 0 -0 -1 -1 -0 1 0 -1 -2 -1 -1 -1 -2 -2 -1 -1 -1 -1 -1 -1
6 9 9 7 6 7 6 6 6 6 6 6 5 3 2 2 2 3 3 3 2 1 1 -0 -0 -1 -1 -1 -1 -1 -1 -1 -2 -2 -2 -2 -2 -2 -1 -0 -0 -1 -1 -2 -1 -1 -2 -1 -1
6 9 8 7 6 5 6 6 5 6 7 5 5 4 3 3 3 3 3 2 2 1 1 0 -0 -0 -1 -1 -1 -1 -1 -1 -1 -2 -2 -2 -1 -1 -1 -1 -2 -2 0 -2 -2 -2 -2 -1 -1
8 6 7 6 5 6 7 5 6 6 5 4 3 3 3 4 3 3 3 2 2 1 1 0 -0 0 -0 -1 -1 -1 -1 -1 -1 -1 -2 -1 -1 -1 -1 -1 -1 -1 -1 -1 -1 -1 -1 -1 -1
7 7 6 5 6 6 5 6 6 6 4 4 3 3 3 3 3 2 2 1 1 2 1 0 -0 -0 -0 -0 -0 -0 -1 -1 -1 -1 -1 -1 -1 -1 -1 -1 -1 -1 -1 -1 -1 -1 -1 -1 -1
8 6 7 6 6 6 7 6 6 5 4 4 4 4 3 3 3 3 2 2 2 1 1 0 -0 -1 -1 -0 -0 -0 0 -0 -1 -1 -1 -1 -1 -1 -1 -1 -1 -1 -1 -1 -1 -1 -1 -1 -1
7 9 8 7 6 7 6 8 7 5 4 4 4 4 3 3 3 3 2 2 1 1 0 0 0 -1 -0 -0 -0 -1 -1 -1 -1 -1 -1 -1 -1 -1 -0 -1 -1 -1 -1 -1 -1 -1 -1 -0 -0
9 10 13 10 7 7 7 12 8 6 5 6 5 4 4 3 3 2 2 1 1 1 1 0 0 -0 -0 -0 -1 -0 -1 -1 -1 -1 -1 -1 -1 -0 -0 0 -0 -1 -1 -1 -1 -0 -0 0 0
10 14 13 13 8 8 8 11 8 6 6 6 6 5 4 3 3 3 2 1 1 1 1 1 0 0 -0 -0 -1 -0 -0 -0 -1 -1 -1 -0 -1 -1 -1 -1 -1 -1 0 0 -0 -0 -0 1 0
15 14 13 14 11 8 9 10 8 7 7 6 6 6 5 5 4 3 2 2 1 1 0 0 0 0 -0 -0 -0 -0 -0 -0 -0 -0 -0 -0 -1 -1 -1 -1 -1 -1 -0 -0 -0 0 0 1 1
13 12 13 12 10 9 10 10 9 7 7 7 7 6 6 5 4 3 3 3 3 2 2 1 1 0 0 1 1 1 1 1 0 0 0 0 0 -1 -1 -1 -0 -1 0 0 -0 0 1 1 1
12 13 13 11 9 10 10 11 9 8 8 7 7 6 6 5 5 4 4 3 3 3 2 2 1 0 0 0 0 0 0 0 -0 -0 0 1 0 -1 -1 -0 -0 -0 0 0 0 1 1 1 1
12 13 13 14 11 10 11 13 11 9 8 8 7 6 6 6 6 5 5 4 3 3 2 2 1 0 0 0 0 0 0 0 1 0 0 -0 -0 -1 -1 -1 -0 -0 0 1 0 1 1 2 1
14 10 11 12 12 16 11 17 12 11 11 9 8 7 7 6 6 5 5 4 3 3 3 3 2 1 0 -0 1 1 2 2 1 1 0 -0 -1 -1 -1 -1 -0 -0 -0 1 1 0 1 1 3
12 9 10 11 12 13 13 15 15 12 13 11 10 8 7 6 5 5 4 4 3 4 3 3 3 3 2 1 0 1 1 1 1 0 0 0 -0 -1 -1 -1 -0 -0 0 0 1 1 1 2 2
10 10 11 11 12 17 15 15 16 13 12 11 9 8 7 6 6 5 4 4 4 4 3 2 3 3 2 2 1 1 1 1 1 1 1 1 0 0 -0 -0 -0 -0 -0 0 0 0 0 1 2
11 13 17 19 19 18 14 15 15 12 11 11 10 9 7 7 6 6 6 5 4 5 5 4 3 4 2 1 1 1 1 1 1 1 1 1 1 1 0 -0 0 0 -0 -0 -0 0 0 1 1
11 12 17 21 20 19 15 18 16 11 10 10 9 8 7 8 7 6 6 5 6 6 6 6 5 5 5 4 3 1 1 1 1 1 1 1 1 1 -0 -0 -0 0 0 0 -0 0 0 0 1
12 14 11 14 17 17 16 14 12 11 11 10 9 9 8 8 7 8 8 7 7 7 7 7 7 6 6 6 5 5 5 4 2 2 0 1 0 0 0 -0 0 -0 -0 -0 0 0 1 0 1
10 9 15 14 20 20 16 15 15 13 11 10 10 9 8 8 8 8 8 8 8 8 8 7 7 8 7 7 7 7 7 6 6 5 5 5 4 4 3 1 0 0 0 0 0 1 1 1 1
12 13 13 12 14 18 18 15 11 11 10 10 9 8 7 8 8 8 8 8 8 8 8 8 8 8 8 8 7 7 7 7 7 7 7 6 6 5 5 4 3 2 1 0 1 1 1 1 1
9 11 12 16 18 15 15 14 9 9 8 8 7 7 7 7 7 7 7 7 7 8 8 8 8 8 8 8 8 8 8 7 7 7 7 6 6 6 6 5 5 4 3 2 1 1 1 2 2